Home   Weather   Bern   Past weeks

Flag for Switzerland Past Weather in Bern, Bern, Switzerland — Yesterday and Last 2 Weeks

Now
66 °F

Sunny.


Feels Like: 66 °F
Forecast: 43 / 70 °F
Wind: 3 mph from North

Location: Bern / Belp

Current Time: Sep 27, 2016 at 7:18:43 PM

Latest Report: Sep 27, 2016 at 6:50 PM


Visibility: 10 mi

Pressure: 30.30 "Hg (28.47 "Hg at 533m altitude)

Humidity: 64%

Dew Point: 54 °F

Location of BernLocation

Past Weather in Bern — Graph

°F

Bern Temperature Yesterday

Maximum temperature yesterday: 68 °F (at 1:20 PM)
Minimum temperature yesterday: 48 °F (at 6:20 AM)
Average temperature yesterday: 59 °F

High & Low Weather Summary for the Past Weeks

 TemperatureHumidityPressure
High84 °F (Sep 13, 4:20 PM)100% (Sep 13, 2:20 AM)30.30 "Hg (Sep 13, 2:20 AM)
Low43 °F (Sep 22, 2:20 AM)45% (Sep 13, 3:50 PM)29.80 "Hg (Sep 15, 2:20 AM)
Average58 °F86%30.08 "Hg
* Reported Sep 12 6:20 PM — Sep 27 6:20 PM, Bern, Weather by CustomWeather, © 2016

Note: Actual official high and low records may vary slightly from our data, if they occured in-between our weather recording intervals... More about our weather records

Advertising

Bern Weather History for the Previous 24 Hours

Scroll right to see more
 ConditionsComfort  
Time TempWeatherWind HumidityBarometerVisibility
6:20 PM
Tue, Sep 27
66 °FSunny.3 mph64%30.30 "Hg10 mi
5:50 PM68 °FPassing clouds.3 mph60%30.30 "HgN/A
5:20 PM68 °FPassing clouds.5 mph60%30.30 "HgN/A
4:50 PM70 °FPassing clouds.2 mph57%30.30 "HgN/A
4:20 PM68 °FPassing clouds.1 mph56%30.30 "HgN/A
3:50 PM68 °FScattered clouds.6 mph60%30.30 "HgN/A
3:20 PM68 °FScattered clouds.6 mph64%30.30 "HgN/A
2:50 PM68 °FScattered clouds.3 mph60%30.30 "HgN/A
2:20 PM66 °FPartly sunny.3 mph68%30.30 "HgN/A
1:50 PM66 °FPartly sunny.6 mph68%30.30 "HgN/A
1:20 PM66 °FPartly sunny.5 mph68%30.30 "HgN/A
12:50 PM66 °FPartly sunny.5 mph68%30.30 "HgN/A
12:20 PM64 °FScattered clouds.2 mph78%30.30 "HgN/A
11:50 AM64 °FScattered clouds.3 mph83%30.30 "HgN/A
11:20 AM61 °FBroken clouds.3 mph88%30.30 "Hg5 mi
10:50 AM59 °FBroken clouds.1 mph88%30.30 "HgN/A
10:20 AM59 °FBroken clouds.1 mph88%30.30 "HgN/A
9:50 AM57 °FBroken clouds.2 mph100%30.27 "HgN/A
9:20 AM57 °FBroken clouds.2 mph100%30.27 "HgN/A
8:50 AM57 °FBroken clouds.2 mph94%30.27 "Hg5 mi
8:20 AM55 °FBroken clouds.2 mph100%30.24 "Hg6 mi
7:50 AM55 °FPartly sunny.1 mph100%30.24 "Hg5 mi
7:20 AM54 °FPassing clouds.1 mph100%30.24 "Hg3 mi
6:50 AM54 °FPassing clouds.2 mph100%30.24 "Hg4 mi
6:20 AM54 °FPartly cloudy.1 mph100%30.24 "Hg4 mi
5:50 AM54 °FPassing clouds.2 mph100%30.21 "Hg3 mi
5:20 AM54 °FPassing clouds.3 mph100%30.21 "Hg4 mi
4:50 AM55 °FPartly cloudy.1 mph100%30.21 "Hg3 mi
4:20 AM55 °FPassing clouds.3 mph94%30.21 "Hg4 mi
3:50 AM54 °FOvercast.No wind100%30.21 "Hg4 mi
3:20 AM54 °FPassing clouds.2 mph100%30.21 "Hg5 mi
2:50 AM55 °FMostly cloudy.1 mph94%30.21 "Hg4 mi
2:20 AM55 °FPartly cloudy.1 mph94%30.21 "Hg4 mi
1:50 AM55 °FPassing clouds.2 mph94%30.18 "Hg4 mi
1:20 AM55 °FPassing clouds.2 mph94%30.18 "Hg4 mi
12:50 AM55 °FPassing clouds.1 mph100%30.18 "Hg6 mi
12:20 AM55 °FPassing clouds.2 mph100%30.18 "HgN/A
11:50 PM
Mon, Sep 26
55 °FPassing clouds.1 mph94%30.21 "Hg5 mi
11:20 PM57 °FPassing clouds.2 mph94%30.21 "Hg5 mi
10:50 PM55 °FPassing clouds.2 mph94%30.21 "HgN/A
10:20 PM55 °FClear.2 mph100%30.18 "Hg10 mi
9:50 PM57 °FPassing clouds.2 mph94%30.18 "HgN/A
9:20 PM59 °FOvercast.2 mph94%30.18 "HgN/A
8:50 PM59 °FPassing clouds.3 mph88%30.18 "HgN/A
8:20 PM61 °FOvercast.2 mph83%30.15 "HgN/A
7:50 PM61 °FPassing clouds.3 mph83%30.15 "HgN/A
7:20 PM63 °FPassing clouds.2 mph77%30.15 "HgN/A
Weather by CustomWeather, © 2016

See weather overviewHow to use our weather pages